OneWeb SL0510

operational
NORAD ID: 54128 Int'l Des: 2022-138 Owner: ONEWEBN Country: UK Constellation: oneweb
LEOCIRCULARPOLARONEWEB_TYPE

Über OneWeb SL0510

Beschreibung wird geladen...

Live-Position

3D-Globus wird geladen...

Nächste Überflüge

Höhenverlauf

Altitude vs Time

uPlot chart will show altitude changes over time

Zweizeiliger Elementsatz

1 54128U 22138R 25306.46718245 .00000057 00000-0 10789-3 0 9999
2 54128 87.9184 319.6542 0001741 75.7396 284.3931 13.20771599149355
Epoch: 2. Nov. 2025 • Age: 29 hours

Aktueller Status

Höhe 1210.7 km
Geschwindigkeit 7.25 km/s
Subsatellitenpunkt -76.51°S, 131.77°W
Startdatum 22. Okt. 2022
Alter 3 years
Typ internet

Technische Details

Klassifizierung Payload
Masse 148.00 kg
Trockenmasse 140.00 kg
Gesamtmasse 148.00 kg
Länge 1.30 m
Durchmesser 1.00 m
Spannweite 5.00 m
Form Trapezoid+2 pan
Hersteller ONEWUS
Bus-Typ ARROW
Phasenstatus In Orbit
Besitzer/Staat ONEWEBN/UK

Große Konstellationen

Loading constellations...